Duluth, MN (55701)

6:29 AM CDT on September 28, 2016 (GMT -0500)
Chester Park WX | | Change Station
Active Advisory: Beach Hazard Statement

Elev 1040 ft 46.81 °N, 92.08 °W | Updated 4 minutes ago

Scattered Clouds
Scattered Clouds
50.8 °F
Feels Like 50.8 °F
N
2.0
Wind Variable Wind from NW
Gusts 5.0 mph

Today
High -- | Low -- °F
--% Chance of Precip.
Yesterday
High -- | Low -- °F
Precip. -- in
Pressure 30.06 in
Visibility 10.0 miles
Clouds Scattered Clouds 2600 ft
Dew Point 48 °F
Humidity 90%
Rainfall 0.00 in
Snow Depth Not available.
7:03 AM 6:52 PM
Waning Crescent, 6% visible
METAR KDLH 281055Z 02009KT 10SM SCT026 10/08 A3003 RMK AO2 SLP179 T01000083
Pressure 30.06 in
Visibility 10.0 miles
Clouds Scattered Clouds 2600 ft
Dew Point 48 °F
Humidity 90%
Rainfall 0.00 in
Snow Depth Not available.
7:03 AM 6:52 PM
Waning Crescent, 6% visible
METAR KDLH 281055Z 02009KT 10SM SCT026 10/08 A3003 RMK AO2 SLP179 T01000083

10-Day Weather Forecast

Almanac

Astronomy

Sep. 28, 2016 Rise Set
Actual Time
Civil Twilight
Nautical Twilight
Astronomical Twilight
Moon
Length of Visible Light
Length of Day
Tomorrow will be .
, % of the Moon is Illuminated

Today's Extremes

State Highs State Lows

Community

WunderPhotos

Upload Photos

1,942,232 photos uploaded!

WunderBlog® & News

Nearby

Air Quality

  Air Quality AQ Index Pollutant
Not available.

Snow Depth

Station Depth Elevation

Earthquake Activity

City Distance Mag. Time & Date
Minimum magnitude displayed is 2.5.

Coastal Water Temperatures

Place Temperature

Stations

Nearby Weather Stations

Station Location Temp. Windchill Dew Point Humidity Wind Precip. Elev Updated Type
                   

Watches & Warnings

Beach Hazard Statement
Issued: 3:55 AM CDT Sep. 28, 2016 – National Weather Service

... Beach hazards statement in effect through this evening...

The National Weather Service in Duluth has issued a beach hazards
statement for dangerous swimming conditions... which is in effect
through this evening.

* Location... Park Point beach

* dangerous swimming conditions are expected along the Lake
Superior shoreline due to high wave action and strong rip
currents.

* High wave action alone can make swimming difficult on days
such as this. Incoming waves in rapid succession can tire a
swimmer quickly.

Precautionary/preparedness actions...

Rip currents are powerful channels of water flowing quickly away
from shore... which occur most often at low spots in sandbars...
near shoreline structures such as peninsulas or breakwalls... and
near river mouths.

For additional safety information and precautions... please visit
www.Weather.Gov/Duluth